User: anonymous   Login
Location: Unspecified
(0.0000°N, 0.0000°E)
Time: 13:20:23
(UTC+00:00)
Language:

SICRAL 1B - Orbit

View from above orbital plane
View from above orbital plane
View from above satellite
View from above satellite

Ground track
Ground track

The orbit data is extracted from the following two-line orbital elements,

1 34810U 09020A   15107.61804002 0.00000000  00000-0  00000-0 0    05
2 34810   0.1148  79.7378 0003453  42.3075 317.7428  1.00270000    01
Epoch (UTC): 17 April 2015 14:49:58
Eccentricity: 0.0003453
inclination: 0.1148°
perigee height: 35772 km
apogee height: 35801 km
right ascension of ascending node: 79.7378°
argument of perigee: 42.3075°
revolutions per day: 1.00270000
mean anomaly at epoch: 317.7428°
orbit number at epoch: 0

The dashed part of the orbit path shows where the satellite is in the earth's shadow,  

DLR